Airfield :
LOGIN :

Register | Disclaimer

   EN    FR    IT 

 










Legend :    VFR   Marginal VFR   IFR   Intensive IFR   Very Intensive IFR
Visi :
Ceiling :
>= 8 km
>= 3000ft
5 to 8 km
1000 to 3000 ft
1500m to 5 km
500 to 1000 ft
800 to 1500m
200 to 500 ft
< 800m
< 200 ft
Symbols :   Thunderstorms  Fog  Heavy snow  Heavy precipitations  Wind > 20 kt
SIGMETs :     Misc.  Thunderstorms  Icing  Turbulence  Mountain Waves  Volcanic Ashes







- Airport Elevation : 80 ft
- IATA code : LPL
- Download approach charts


EGGP - Liverpool John Lennon

CURRENT METAR :
  • 111720Z 13010KT 9999 BKN030 08/06 Q1020

EXPIRED METARs :
  • 111650Z 13009KT 9999 BKN027 09/06 Q1020
  • 111620Z 13007KT 9999 BKN027 09/06 Q1020
  • 111550Z 13006KT 100V170 9999 BKN027 09/06 Q1020
  • 111520Z 13006KT 100V160 9999 BKN029 08/06 Q1021
  • 111450Z 13006KT 100V160 9999 BKN029 09/06 Q1021

TAF TAF EGGP
Valid from the 11 at 18:00 until the 12 at 18:00 UTC


111700Z 1118/1218 14008KT 9999 FEW012 SCT030
PROB30
TEMPO 1118/1218 6000 -RADZ BKN012
BECMG 1215/1218 14018KT
ATIS : +44 151 907 2000 (option 5 or ext 5150)
Met : +44 871 750 5150
No reported NOTAMs for that airfield.



MET'MAP, your aeronautical weather chart ! - Copyright ORBIFLY December 2007 - Disclaimer

ORBIFLY MET'MAP TEAM :

Programming & Development : Alexandra Zaïnal
Concept & Development : Baudouin d'Aumeries
Co-Development & Prog : Marc-Olivier Méhu
Technical & hardware support : Manuel Goepfert

Contact : metmap@orbifly.com




SOURCES & CREDITS :

   NOAA